Buffalo, NY

7:33 AM EST on November 19, 2019 (GMT -0500)
Buffalo Niagara International

Weather History for KBUF - September, 2019

Change the Weather History Date:

Friday, September 27, 2019

  Actual Average Record
Temperature  
Mean Temperature 62 °F 58 °F  
Max Temperature 75 °F 67 °F 87 °F (1946)
Min Temperature 49 °F 49 °F 33 °F (1947)
Degree Days  
Heating Degree Days 3 8  
Month to date heating degree days 29 110  
Since 1 July heating degree days 32 137  
Cooling Degree Days 0 1  
Month to date cooling degree days 52 52  
Year to date cooling degree days 597 539  
Growing Degree Days 12 (Base 50)    
Moisture  
Dew Point 46 °F    
Average Humidity 61    
Maximum Humidity 89    
Minimum Humidity 33    
Precipitation  
Precipitation 0.00 in 0.14 in 1.48 in (2002)
Month to date precipitation 6.04 3.48  
Year to date precipitation 34.41 28.64  
Snow  
Snow 0.00 in 0.00 in 0.00 in ()
Month to date snowfall 0.0 0.0  
Since 1 July snowfall 0.0 0.0  
Since 1 September snowfall 0.0 0.0  
Snow Depth 0.00 in    
Sea Level Pressure  
Sea Level Pressure 29.98 in    
Wind  
Wind Speed 10 mph (South)    
Max Wind Speed 24 mph    
Max Gust Speed 33 mph    
Visibility 10 miles    
Events      
T = Trace of Precipitation, MM = Missing Value Source: NWS Daily Summary

Daily Weather History Graph

Daily Weather History Graph

Search for Another Location

Airport or City:

Astronomy

Sep. 27, 2019 Rise Set
Actual Time 7:07 AM EDT 7:03 PM EDT
Civil Twilight 6:39 AM EDT 7:31 PM EDT
Nautical Twilight 6:06 AM EDT 8:04 PM EDT
Astronomical Twilight 5:32 AM EDT 8:38 PM EDT
Moon 5:22 AM EDT (9/27) 6:56 PM EDT (9/27)
Length of Visible Light 12h 52m
Length of Day
11h 56m
Waning Crescent, 2% of the Moon is Illuminated
Sep 27
Waning Crescent
Sep 28
New
Oct 5
First Quarter
Oct 13
Full
Oct 21
Last Quarter

Hourly Weather History & Observations

Time (EDT) Temp. Dew Point Humidity Pressure Visibility Wind Dir Wind Speed Gust Speed Precip Events Conditions
12:54 AM 55.0 °F 45.0 °F 69% 30.00 in 10.0 mi East 3.5 mph - N/A   Clear
1:54 AM 51.1 °F 45.0 °F 80% 30.01 in 10.0 mi South 6.9 mph - N/A   Clear
2:54 AM 50.0 °F 45.0 °F 83% 30.00 in 10.0 mi South 3.5 mph - N/A   Clear
3:54 AM 50.0 °F 45.0 °F 83% 30.00 in 10.0 mi SSE 5.8 mph - N/A   Clear
4:54 AM 50.0 °F 44.1 °F 80% 30.01 in 10.0 mi SSE 5.8 mph - N/A   Clear
5:54 AM 48.9 °F - N/A% 30.03 in 10.0 mi SSE 5.8 mph - N/A   Clear
5:56 AM 48.9 °F 44.1 °F 83% 30.03 in 10.0 mi SSE 5.8 mph - N/A   Clear
6:54 AM 48.9 °F 43.0 °F 80% 30.06 in 10.0 mi SSE 5.8 mph - N/A   Clear
7:54 AM 51.1 °F 48.0 °F 89% 30.06 in 10.0 mi SSE 6.9 mph - N/A   Partly Cloudy
8:54 AM 55.0 °F 48.9 °F 80% 30.07 in 10.0 mi SSE 5.8 mph - N/A   Partly Cloudy
9:54 AM 60.1 °F 48.9 °F 67% 30.07 in 10.0 mi South 8.1 mph - N/A   Mostly Cloudy
11:54 AM 66.9 °F 48.0 °F 51% 30.05 in 10.0 mi SSW 13.8 mph - N/A   Partly Cloudy
12:54 PM 69.1 °F 48.0 °F 47% 30.03 in 10.0 mi South 10.4 mph 17.3 mph N/A   Partly Cloudy
1:54 PM 71.1 °F 46.0 °F 41% 30.01 in 10.0 mi SSW 10.4 mph - N/A   Partly Cloudy
2:54 PM 72.0 °F 43.0 °F 35% 29.97 in 10.0 mi South 13.8 mph - N/A   Scattered Clouds
3:54 PM 73.9 °F 45.0 °F 35% 29.94 in 10.0 mi South 12.7 mph - N/A   Mostly Cloudy
4:54 PM 75.0 °F 45.0 °F 34% 29.92 in 10.0 mi South 10.4 mph - N/A   Mostly Cloudy
5:54 PM 73.0 °F 45.0 °F 37% 29.91 in 10.0 mi South 9.2 mph - N/A   Mostly Cloudy
6:54 PM 71.1 °F 46.9 °F 42% 29.92 in 10.0 mi South 5.8 mph - N/A   Mostly Cloudy
7:54 PM 68.0 °F 46.9 °F 47% 29.92 in 10.0 mi South 8.1 mph - N/A   Mostly Cloudy
8:54 PM 66.0 °F 48.0 °F 52% 29.92 in 10.0 mi South 8.1 mph - N/A   Mostly Cloudy
9:54 PM 66.9 °F 48.9 °F 52% 29.89 in 10.0 mi South 10.4 mph - N/A   Mostly Cloudy
10:54 PM 71.1 °F 48.9 °F 45% 29.87 in 10.0 mi South 20.7 mph 26.5 mph N/A   Mostly Cloudy
11:54 PM 72.0 °F 50.0 °F 46% 29.86 in 10.0 mi South 18.4 mph 24.2 mph N/A   Mostly Cloudy